星链-32421 (STARLINK-32421)

导读

STARLINK-32421是美国星链项目的卫星,于2024年10月23日发射升空,归属SpaceX公司的星链星座网络。星链项目旨在构建全球卫星互联网星座,通过大规模低轨卫星组网,为全球偏远地区等各类场景提供高速网络接入服务,该卫星的入轨进一步扩充了星链星座的服务覆盖能力。

Basic Information
目录编号:
61628
目录名称:
STARLINK-32421
国际标识:
2024-191H
轨道中心:
EARTH
卫星名称:
星链-32421
卫星全名:
星链-32421 (STARLINK-32421)
卫星状态:
在轨 (已飞行602 天)
发射日期:
2024-10-23 UTC
国别 :
美国 (US)
星等 :
--
Orbit Information
数据来源 国际轨道数据 AOE轨道数据
星历时间 2026-06-17T00:12:18+0800
1天前
查看轨道信息
2026-06-17T01:00:00+0800
1天前
查看轨道信息
半长轴 6861.179km 6861.158km
偏心率 0.0001236 0.000093
轨道倾角 43.003° 43.005°
近地点辐角 253.953° 222.531°
升交点赤经 315.598° 315.415°
平近点角 106.118° 319.897°
近地点 482.193km 482.382km
远地点 483.891km 483.66km
周期 94.267分钟 94.266分钟
每日圈数 15.275826 15.275897
Detailed Information
固有亮度:
5
最大亮度:
2.5
卫星平台:
Starlink V1.0
覆盖范围:
全球
运营商:
太空探索技术公司
运营商所在国:
美国
制造商(研发单位):
太空探索技术公司
制造商所在国:
美国
使用方式:
暂无
Satellite Introduction
Starlink 计划是 SpaceX 推出的全球卫星互联网项目,通过发射低轨道卫星,为全球尤其是偏远地区提供高速、低延迟的互联网服务。自 2019 年起,Starlink 已部署数千颗卫星,旨在缩小全球数字鸿沟,推动互联网普及。该项目还为军事、航空等行业提供通信支持,带来广泛经济效益。
2D Orbit Map
3D Orbit Map
Orbit Altitude Analysis Chart
Orbit Inclination Analysis Chart
Orbit Comprehensive Analysis Chart
View Comprehensive Chart